Language: 


Des rapports , des résumés tant et plus, au choix de chacun....


Données statistiques de la station
Quotidien Rapport Juin 25, 2017 Unités:  Métrique    Anglais   les deux
« Précédent Jour
Suivant Jour »
Quotidien Hebdomadaire Mensuel Annuel Actuel
  Haut: Bas: Moyen:
Température: 23.3 °C 16.2 °C 18.7 °C
Pt de rosée: 17.0 °C 13.0 °C 15.1 °C
Humidité: 96 % 56 % 81 %
Vitesse du vent: 37.5 km/h 6.1 km/h 17.5 km/h
Rafales: 43.6 km/h - -
Vent:- - WSW
Pression: 1014.1 hPa 1012.1 hPa -
Précipitation: 0.0 mm    
Historical Graphs
 
 
Données statistiques pour Juin 25, 2017
Heure Température Point de rosée Pression Vent Vitesse du vent Refales Humidité Pluie (taux horaire)
00:04 17.8 °C 16.0 °C 1013.1 hPa WSW 17.7 km/h 24.5 km/h 91 % 0.0 mm
00:09 17.8 °C 16.0 °C 1013.1 hPa West 21.9 km/h 28.0 km/h 91 % 0.0 mm
00:14 17.8 °C 16.0 °C 1013.1 hPa WSW 15.8 km/h 28.0 km/h 91 % 0.0 mm
00:19 17.8 °C 16.0 °C 1013.1 hPa SW 17.2 km/h 22.4 km/h 91 % 0.0 mm
00:24 17.8 °C 16.0 °C 1013.1 hPa WSW 16.3 km/h 21.6 km/h 91 % 0.0 mm
00:29 17.8 °C 16.0 °C 1013.1 hPa WSW 20.9 km/h 21.6 km/h 91 % 0.0 mm
00:34 17.8 °C 16.0 °C 1013.1 hPa South 16.3 km/h 23.3 km/h 91 % 0.0 mm
00:39 17.8 °C 16.0 °C 1013.1 hPa WSW 20.1 km/h 23.3 km/h 91 % 0.0 mm
00:44 17.8 °C 16.0 °C 1013.1 hPa West 22.7 km/h 22.7 km/h 91 % 0.0 mm
00:49 17.8 °C 16.0 °C 1013.1 hPa West 21.6 km/h 24.8 km/h 91 % 0.0 mm
00:54 17.8 °C 16.0 °C 1013.1 hPa WSW 21.2 km/h 27.7 km/h 91 % 0.0 mm
01:00 17.8 °C 16.0 °C 1013.1 hPa WSW 14.8 km/h 27.7 km/h 91 % 0.0 mm
01:05 17.8 °C 16.0 °C 1013.1 hPa WSW 6.1 km/h 23.0 km/h 91 % 0.0 mm
01:10 17.8 °C 16.0 °C 1013.1 hPa WSW 9.7 km/h 26.2 km/h 91 % 0.0 mm
01:15 17.9 °C 17.0 °C 1013.1 hPa SW 16.6 km/h 26.2 km/h 91 % 0.0 mm
01:20 17.9 °C 17.0 °C 1013.1 hPa WSW 11.9 km/h 22.4 km/h 91 % 0.0 mm
01:25 17.9 °C 17.0 °C 1013.1 hPa WSW 8.7 km/h 29.9 km/h 91 % 0.0 mm
01:30 17.8 °C 16.0 °C 1013.1 hPa WSW 17.2 km/h 29.9 km/h 91 % 0.0 mm
01:35 17.8 °C 16.0 °C 1013.1 hPa WSW 18.0 km/h 28.5 km/h 91 % 0.0 mm
01:40 17.8 °C 16.0 °C 1013.1 hPa WSW 19.8 km/h 26.7 km/h 91 % 0.0 mm
01:45 17.8 °C 16.0 °C 1013.1 hPa WSW 14.0 km/h 24.8 km/h 92 % 0.0 mm
01:50 17.8 °C 16.0 °C 1013.1 hPa WSW 22.7 km/h 22.7 km/h 92 % 0.0 mm
01:55 17.8 °C 16.0 °C 1013.1 hPa WSW 21.6 km/h 24.8 km/h 92 % 0.0 mm
02:00 17.8 °C 16.0 °C 1013.1 hPa West 24.5 km/h 24.8 km/h 92 % 0.0 mm
02:05 17.8 °C 16.0 °C 1013.1 hPa WSW 9.7 km/h 25.6 km/h 92 % 0.0 mm
02:10 17.8 °C 16.0 °C 1013.1 hPa WSW 14.0 km/h 25.6 km/h 92 % 0.0 mm
02:15 17.8 °C 16.0 °C 1013.1 hPa West 19.8 km/h 23.3 km/h 92 % 0.0 mm
02:20 17.8 °C 16.0 °C 1013.1 hPa West 20.6 km/h 24.5 km/h 92 % 0.0 mm
02:25 17.8 °C 16.0 °C 1013.1 hPa West 10.1 km/h 24.5 km/h 92 % 0.0 mm
02:30 17.8 °C 16.0 °C 1013.1 hPa WSW 19.5 km/h 23.8 km/h 92 % 0.0 mm
02:35 17.8 °C 17.0 °C 1013.1 hPa West 12.2 km/h 23.3 km/h 93 % 0.0 mm
02:40 17.8 °C 17.0 °C 1013.1 hPa WSW 11.9 km/h 21.2 km/h 93 % 0.0 mm
02:41 17.7 °C 17.0 °C 1013.1 hPa West 19.5 km/h 20.1 km/h 93 % 0.0 mm
02:46 17.7 °C 17.0 °C 1013.1 hPa West 14.0 km/h 21.2 km/h 93 % 0.0 mm
02:52 17.7 °C 17.0 °C 1013.1 hPa WSW 19.5 km/h 23.3 km/h 93 % 0.0 mm
02:57 17.4 °C 16.0 °C 1013.1 hPa WSW 12.2 km/h 27.7 km/h 94 % 0.0 mm
03:02 17.2 °C 16.0 °C 1013.1 hPa West 9.7 km/h 27.7 km/h 94 % 0.0 mm
03:07 17.2 °C 16.0 °C 1013.1 hPa WSW 6.1 km/h 17.7 km/h 94 % 0.0 mm
03:12 17.1 °C 16.0 °C 1013.1 hPa WSW 11.9 km/h 17.7 km/h 95 % 0.0 mm
03:17 17.1 °C 16.0 °C 1013.1 hPa WSW 7.6 km/h 17.7 km/h 95 % 0.0 mm
03:22 17.1 °C 16.0 °C 1013.1 hPa West 12.6 km/h 16.9 km/h 95 % 0.0 mm
03:27 17.1 °C 16.0 °C 1013.1 hPa WSW 13.0 km/h 24.8 km/h 95 % 0.0 mm
03:32 17.0 °C 16.0 °C 1013.1 hPa West 16.3 km/h 24.8 km/h 95 % 0.0 mm
03:37 17.0 °C 17.0 °C 1013.1 hPa West 13.0 km/h 20.6 km/h 96 % 0.0 mm
03:42 16.9 °C 17.0 °C 1013.1 hPa West 15.8 km/h 20.9 km/h 96 % 0.0 mm
03:47 16.9 °C 17.0 °C 1013.1 hPa WSW 11.9 km/h 24.5 km/h 96 % 0.0 mm
03:52 16.8 °C 16.0 °C 1013.1 hPa WSW 17.2 km/h 24.5 km/h 96 % 0.0 mm
03:57 16.8 °C 16.0 °C 1013.1 hPa WSW 15.8 km/h 21.2 km/h 96 % 0.0 mm
04:02 16.8 °C 16.0 °C 1013.1 hPa SSW 10.5 km/h 20.9 km/h 96 % 0.0 mm
04:07 16.7 °C 16.0 °C 1013.1 hPa WSW 11.9 km/h 17.7 km/h 96 % 0.0 mm
04:12 16.7 °C 16.0 °C 1013.1 hPa West 14.0 km/h 20.1 km/h 96 % 0.0 mm
04:17 16.7 °C 16.0 °C 1012.1 hPa WSW 13.0 km/h 20.1 km/h 96 % 0.0 mm
04:22 16.7 °C 16.0 °C 1012.1 hPa WSW 9.3 km/h 19.8 km/h 96 % 0.0 mm
04:27 16.7 °C 16.0 °C 1012.1 hPa SSW 12.2 km/h 19.8 km/h 96 % 0.0 mm
04:32 16.7 °C 16.0 °C 1012.1 hPa West 11.9 km/h 20.9 km/h 96 % 0.0 mm
04:37 16.7 °C 16.0 °C 1012.1 hPa WSW 27.4 km/h 27.4 km/h 95 % 0.0 mm
04:42 16.7 °C 16.0 °C 1012.1 hPa West 22.4 km/h 29.9 km/h 95 % 0.0 mm
04:48 16.7 °C 16.0 °C 1013.1 hPa West 19.8 km/h 29.9 km/h 95 % 0.0 mm
04:53 16.7 °C 16.0 °C 1013.1 hPa WSW 12.6 km/h 24.8 km/h 95 % 0.0 mm
04:58 16.7 °C 16.0 °C 1013.1 hPa SW 10.1 km/h 21.6 km/h 95 % 0.0 mm
05:03 16.7 °C 16.0 °C 1012.1 hPa SW 12.2 km/h 21.6 km/h 95 % 0.0 mm
05:08 16.6 °C 16.0 °C 1012.1 hPa WSW 17.7 km/h 21.2 km/h 93 % 0.0 mm
05:13 16.6 °C 16.0 °C 1012.1 hPa WSW 15.1 km/h 21.2 km/h 93 % 0.0 mm
05:18 16.6 °C 16.0 °C 1012.1 hPa WSW 19.8 km/h 20.1 km/h 93 % 0.0 mm
05:23 16.6 °C 16.0 °C 1012.1 hPa WSW 16.6 km/h 26.7 km/h 93 % 0.0 mm
05:28 16.6 °C 16.0 °C 1012.1 hPa WSW 13.0 km/h 26.7 km/h 93 % 0.0 mm
05:33 16.6 °C 16.0 °C 1013.1 hPa WSW 14.3 km/h 17.2 km/h 93 % 0.0 mm
05:38 16.3 °C 15.0 °C 1013.1 hPa WSW 12.6 km/h 21.2 km/h 91 % 0.0 mm
05:43 16.3 °C 15.0 °C 1013.1 hPa WSW 14.3 km/h 21.2 km/h 91 % 0.0 mm
05:49 16.3 °C 15.0 °C 1012.1 hPa SW 15.1 km/h 20.6 km/h 91 % 0.0 mm
05:54 16.3 °C 15.0 °C 1012.1 hPa West 14.3 km/h 20.6 km/h 91 % 0.0 mm
05:59 16.3 °C 15.0 °C 1012.1 hPa West 10.1 km/h 16.9 km/h 91 % 0.0 mm
06:04 16.3 °C 15.0 °C 1012.1 hPa West 19.5 km/h 19.5 km/h 91 % 0.0 mm
06:09 16.3 °C 15.0 °C 1012.1 hPa SW 15.4 km/h 21.2 km/h 91 % 0.0 mm
06:14 16.3 °C 15.0 °C 1012.1 hPa WSW 10.5 km/h 21.2 km/h 91 % 0.0 mm
06:19 16.3 °C 15.0 °C 1013.1 hPa West 26.7 km/h 26.7 km/h 91 % 0.0 mm
06:24 16.3 °C 15.0 °C 1013.1 hPa West 17.2 km/h 26.7 km/h 91 % 0.0 mm
06:29 16.3 °C 15.0 °C 1013.1 hPa WSW 8.7 km/h 24.8 km/h 91 % 0.0 mm
06:34 16.3 °C 15.0 °C 1013.1 hPa WSW 12.6 km/h 21.2 km/h 91 % 0.0 mm
06:39 16.3 °C 15.0 °C 1013.1 hPa West 9.3 km/h 18.3 km/h 91 % 0.0 mm
06:44 16.3 °C 15.0 °C 1013.1 hPa WSW 15.8 km/h 20.6 km/h 91 % 0.0 mm
06:49 16.4 °C 15.0 °C 1013.1 hPa WSW 17.2 km/h 20.6 km/h 92 % 0.0 mm
06:54 16.4 °C 15.0 °C 1013.1 hPa WSW 16.6 km/h 18.3 km/h 92 % 0.0 mm
06:59 16.4 °C 15.0 °C 1013.1 hPa West 13.7 km/h 20.6 km/h 92 % 0.0 mm
07:04 16.4 °C 15.0 °C 1013.1 hPa SW 11.9 km/h 20.6 km/h 92 % 0.0 mm
07:09 16.5 °C 15.0 °C 1013.1 hPa West 13.0 km/h 25.3 km/h 92 % 0.0 mm
07:14 16.5 °C 15.0 °C 1013.1 hPa West 16.9 km/h 25.3 km/h 92 % 0.0 mm
07:19 16.5 °C 15.0 °C 1013.1 hPa WSW 18.0 km/h 18.0 km/h 92 % 0.0 mm
07:21 16.5 °C 15.0 °C 1013.1 hPa WSW 14.0 km/h 18.0 km/h 92 % 0.0 mm
07:26 16.5 °C 15.0 °C 1013.1 hPa West 17.2 km/h 20.6 km/h 92 % 0.0 mm
07:31 16.5 °C 15.0 °C 1013.1 hPa WSW 11.6 km/h 20.6 km/h 92 % 0.0 mm
07:36 16.5 °C 15.0 °C 1013.1 hPa WSW 12.6 km/h 17.7 km/h 92 % 0.0 mm
07:41 16.6 °C 15.0 °C 1013.1 hPa WSW 12.2 km/h 23.0 km/h 91 % 0.0 mm
07:46 16.7 °C 15.0 °C 1012.1 hPa West 13.0 km/h 23.0 km/h 91 % 0.0 mm
07:51 16.6 °C 15.0 °C 1012.1 hPa WNW 13.0 km/h 20.6 km/h 91 % 0.0 mm
07:56 16.6 °C 15.0 °C 1012.1 hPa WSW 16.3 km/h 20.6 km/h 91 % 0.0 mm
08:01 16.6 °C 15.0 °C 1013.1 hPa West 14.0 km/h 20.6 km/h 91 % 0.0 mm
08:06 16.7 °C 15.0 °C 1013.1 hPa WSW 19.5 km/h 24.5 km/h 91 % 0.0 mm
08:07 16.7 °C 15.0 °C 1013.1 hPa West 15.4 km/h 24.5 km/h 91 % 0.0 mm
08:12 16.8 °C 15.0 °C 1013.1 hPa West 13.7 km/h 24.5 km/h 91 % 0.0 mm
08:17 16.9 °C 15.0 °C 1013.1 hPa West 16.6 km/h 17.2 km/h 90 % 0.0 mm
08:22 17.0 °C 15.0 °C 1013.1 hPa West 20.9 km/h 20.9 km/h 90 % 0.0 mm
08:27 17.1 °C 15.0 °C 1013.1 hPa West 23.8 km/h 24.5 km/h 89 % 0.0 mm
08:32 17.3 °C 16.0 °C 1013.1 hPa West 17.2 km/h 24.5 km/h 89 % 0.0 mm
08:37 17.3 °C 16.0 °C 1013.1 hPa WSW 13.0 km/h 20.1 km/h 89 % 0.0 mm
08:42 17.4 °C 15.0 °C 1013.1 hPa WSW 14.3 km/h 22.7 km/h 88 % 0.0 mm
08:47 17.5 °C 16.0 °C 1013.1 hPa West 15.4 km/h 22.7 km/h 87 % 0.0 mm
08:52 17.6 °C 15.0 °C 1013.1 hPa West 13.0 km/h 22.7 km/h 86 % 0.0 mm
08:57 17.7 °C 15.0 °C 1013.1 hPa WSW 12.6 km/h 23.0 km/h 86 % 0.0 mm
09:02 17.9 °C 16.0 °C 1012.1 hPa WSW 17.2 km/h 23.0 km/h 85 % 0.0 mm
09:05 17.9 °C 16.0 °C 1012.1 hPa West 13.7 km/h 24.5 km/h 85 % 0.0 mm
09:10 18.4 °C 15.0 °C 1012.1 hPa West 16.6 km/h 24.8 km/h 83 % 0.0 mm
09:15 18.6 °C 15.0 °C 1012.1 hPa West 15.8 km/h 28.5 km/h 81 % 0.0 mm
09:20 18.4 °C 15.0 °C 1014.1 hPa West 17.2 km/h 30.2 km/h 80 % 0.0 mm
09:21 18.5 °C 15.0 °C 1014.1 hPa West 20.1 km/h 30.2 km/h 80 % 0.0 mm
09:26 18.7 °C 15.0 °C 1014.1 hPa West 19.5 km/h 30.2 km/h 79 % 0.0 mm
09:31 18.9 °C 16.0 °C 1013.1 hPa West 19.1 km/h 28.5 km/h 80 % 0.0 mm
09:36 19.1 °C 15.0 °C 1013.1 hPa West 17.7 km/h 28.5 km/h 76 % 0.0 mm
09:41 18.8 °C 14.0 °C 1013.1 hPa West 15.4 km/h 28.5 km/h 76 % 0.0 mm
09:46 18.8 °C 15.0 °C 1013.1 hPa West 19.8 km/h 28.8 km/h 77 % 0.0 mm
09:51 18.7 °C 15.0 °C 1013.1 hPa WSW 26.2 km/h 28.8 km/h 78 % 0.0 mm
09:56 19.0 °C 15.0 °C 1013.1 hPa WSW 16.3 km/h 26.2 km/h 78 % 0.0 mm
10:01 19.2 °C 15.0 °C 1013.1 hPa WSW 19.1 km/h 26.2 km/h 77 % 0.0 mm
10:06 19.2 °C 15.0 °C 1013.1 hPa West 16.9 km/h 27.7 km/h 77 % 0.0 mm
10:11 19.2 °C 15.0 °C 1013.1 hPa West 23.8 km/h 28.5 km/h 77 % 0.0 mm
10:16 19.8 °C 15.0 °C 1013.1 hPa West 24.5 km/h 28.5 km/h 72 % 0.0 mm
10:21 19.8 °C 15.0 °C 1013.1 hPa WSW 22.4 km/h 28.5 km/h 72 % 0.0 mm
10:26 20.1 °C 15.0 °C 1013.1 hPa WSW 13.0 km/h 28.0 km/h 71 % 0.0 mm
10:31 19.8 °C 15.0 °C 1012.1 hPa WSW 20.1 km/h 28.0 km/h 72 % 0.0 mm
10:36 20.1 °C 15.0 °C 1012.1 hPa WSW 16.6 km/h 28.0 km/h 72 % 0.0 mm
10:41 20.2 °C 15.0 °C 1012.1 hPa WSW 16.3 km/h 27.7 km/h 71 % 0.0 mm
10:47 20.3 °C 14.0 °C 1012.1 hPa WSW 17.7 km/h 28.5 km/h 69 % 0.0 mm
10:52 20.5 °C 15.0 °C 1012.1 hPa West 19.5 km/h 28.5 km/h 68 % 0.0 mm
10:57 20.8 °C 15.0 °C 1012.1 hPa WSW 20.1 km/h 28.5 km/h 68 % 0.0 mm
11:02 20.5 °C 15.0 °C 1013.1 hPa WSW 13.0 km/h 25.9 km/h 68 % 0.0 mm
11:05 20.3 °C 14.0 °C 1013.1 hPa West 15.8 km/h 25.9 km/h 68 % 0.0 mm
11:10 20.1 °C 14.0 °C 1013.1 hPa WSW 20.1 km/h 30.6 km/h 68 % 0.0 mm
11:15 20.2 °C 14.0 °C 1013.1 hPa SSW 10.5 km/h 30.6 km/h 69 % 0.0 mm
11:20 20.2 °C 14.0 °C 1013.1 hPa West 16.6 km/h 23.8 km/h 69 % 0.0 mm
11:25 19.9 °C 14.0 °C 1013.1 hPa West 13.0 km/h 23.8 km/h 68 % 0.0 mm
11:30 19.9 °C 14.0 °C 1013.1 hPa SSW 18.3 km/h 22.4 km/h 69 % 0.0 mm
11:35 19.7 °C 14.0 °C 1013.1 hPa WSW 16.6 km/h 27.4 km/h 68 % 0.0 mm
11:40 19.9 °C 14.0 °C 1013.1 hPa West 20.9 km/h 27.4 km/h 69 % 0.0 mm
11:45 19.8 °C 14.0 °C 1013.1 hPa SW 10.1 km/h 27.4 km/h 68 % 0.0 mm
11:50 20.3 °C 14.0 °C 1013.1 hPa WSW 17.2 km/h 27.4 km/h 69 % 0.0 mm
11:55 20.5 °C 14.0 °C 1013.1 hPa West 10.1 km/h 27.0 km/h 67 % 0.0 mm
12:00 20.7 °C 14.0 °C 1013.1 hPa West 16.3 km/h 28.5 km/h 67 % 0.0 mm
12:05 20.7 °C 14.0 °C 1013.1 hPa WSW 10.1 km/h 28.5 km/h 67 % 0.0 mm
12:10 20.8 °C 14.0 °C 1013.1 hPa WSW 24.5 km/h 29.9 km/h 66 % 0.0 mm
12:15 21.1 °C 14.0 °C 1013.1 hPa WSW 12.2 km/h 29.9 km/h 66 % 0.0 mm
12:16 21.1 °C 14.0 °C 1014.1 hPa WSW 17.2 km/h 29.9 km/h 66 % 0.0 mm
12:21 21.8 °C 14.0 °C 1014.1 hPa WSW 10.5 km/h 27.0 km/h 61 % 0.0 mm
12:26 21.0 °C 13.0 °C 1014.1 hPa WSW 16.3 km/h 27.0 km/h 62 % 0.0 mm
12:31 21.2 °C 14.0 °C 1014.1 hPa WSW 20.1 km/h 32.0 km/h 62 % 0.0 mm
12:36 21.7 °C 14.0 °C 1014.1 hPa WSW 20.9 km/h 32.0 km/h 60 % 0.0 mm
12:41 21.7 °C 13.0 °C 1014.1 hPa WSW 10.5 km/h 25.6 km/h 59 % 0.0 mm
12:46 21.7 °C 14.0 °C 1014.1 hPa WSW 24.8 km/h 25.6 km/h 61 % 0.0 mm
12:51 21.5 °C 14.0 °C 1014.1 hPa West 21.2 km/h 28.0 km/h 60 % 0.0 mm
12:56 21.3 °C 14.0 °C 1014.1 hPa WSW 24.8 km/h 28.0 km/h 62 % 0.0 mm
13:01 21.5 °C 14.0 °C 1014.1 hPa WSW 12.6 km/h 32.8 km/h 62 % 0.0 mm
13:06 21.4 °C 14.0 °C 1014.1 hPa West 22.4 km/h 32.8 km/h 63 % 0.0 mm
13:11 21.4 °C 14.0 °C 1014.1 hPa WSW 14.0 km/h 28.5 km/h 64 % 0.0 mm
13:16 21.3 °C 14.0 °C 1014.1 hPa WSW 16.6 km/h 28.5 km/h 64 % 0.0 mm
13:21 21.5 °C 15.0 °C 1014.1 hPa West 19.8 km/h 30.9 km/h 64 % 0.0 mm
13:26 21.3 °C 14.0 °C 1014.1 hPa WSW 24.8 km/h 33.1 km/h 63 % 0.0 mm
13:31 21.8 °C 14.0 °C 1013.1 hPa WSW 22.4 km/h 33.1 km/h 62 % 0.0 mm
13:36 22.3 °C 14.0 °C 1013.1 hPa West 31.7 km/h 32.0 km/h 61 % 0.0 mm
13:41 22.9 °C 15.0 °C 1013.1 hPa WSW 24.8 km/h 32.0 km/h 60 % 0.0 mm
13:46 22.7 °C 14.0 °C 1014.1 hPa SW 22.4 km/h 31.7 km/h 58 % 0.0 mm
13:51 22.8 °C 14.0 °C 1014.1 hPa WSW 14.0 km/h 30.6 km/h 59 % 0.0 mm
13:56 23.3 °C 15.0 °C 1014.1 hPa WSW 21.2 km/h 28.5 km/h 58 % 0.0 mm
14:01 22.5 °C 13.0 °C 1014.1 hPa WSW 28.5 km/h 33.1 km/h 56 % 0.0 mm
14:06 22.0 °C 13.0 °C 1014.1 hPa WSW 23.8 km/h 33.1 km/h 57 % 0.0 mm
14:11 21.8 °C 13.0 °C 1014.1 hPa WSW 27.0 km/h 33.1 km/h 58 % 0.0 mm
14:16 22.1 °C 14.0 °C 1014.1 hPa WSW 20.9 km/h 31.7 km/h 59 % 0.0 mm
14:21 21.9 °C 14.0 °C 1014.1 hPa WNW 17.2 km/h 32.3 km/h 59 % 0.0 mm
14:26 21.8 °C 14.0 °C 1014.1 hPa WSW 23.8 km/h 32.3 km/h 60 % 0.0 mm
14:31 22.0 °C 14.0 °C 1014.1 hPa West 20.9 km/h 38.1 km/h 61 % 0.0 mm
14:37 22.4 °C 14.0 °C 1014.1 hPa West 19.8 km/h 38.1 km/h 61 % 0.0 mm
14:42 22.9 °C 15.0 °C 1014.1 hPa WSW 28.0 km/h 39.3 km/h 59 % 0.0 mm
14:47 22.3 °C 14.0 °C 1014.1 hPa West 27.4 km/h 39.3 km/h 60 % 0.0 mm
14:52 21.8 °C 14.0 °C 1014.1 hPa WSW 20.1 km/h 35.2 km/h 61 % 0.0 mm
14:57 23.0 °C 15.0 °C 1014.1 hPa WSW 23.3 km/h 37.8 km/h 61 % 0.0 mm
15:02 22.8 °C 15.0 °C 1014.1 hPa West 33.5 km/h 37.8 km/h 60 % 0.0 mm
15:07 22.2 °C 14.0 °C 1014.1 hPa WSW 19.8 km/h 40.7 km/h 59 % 0.0 mm
15:12 21.6 °C 14.0 °C 1014.1 hPa SSW 26.2 km/h 43.1 km/h 61 % 0.0 mm
15:17 21.5 °C 14.0 °C 1014.1 hPa WNW 29.9 km/h 43.1 km/h 62 % 0.0 mm
15:22 21.9 °C 14.0 °C 1014.1 hPa West 28.5 km/h 34.6 km/h 62 % 0.0 mm
15:27 21.9 °C 14.0 °C 1014.1 hPa WSW 37.0 km/h 37.0 km/h 61 % 0.0 mm
15:32 22.3 °C 14.0 °C 1014.1 hPa WSW 24.8 km/h 38.1 km/h 61 % 0.0 mm
15:37 22.4 °C 14.0 °C 1014.1 hPa West 37.5 km/h 38.1 km/h 59 % 0.0 mm
15:42 22.2 °C 14.0 °C 1014.1 hPa WSW 17.2 km/h 38.9 km/h 59 % 0.0 mm
15:47 22.6 °C 14.0 °C 1014.1 hPa WSW 23.8 km/h 38.9 km/h 58 % 0.0 mm
15:52 22.6 °C 13.0 °C 1014.1 hPa West 27.0 km/h 37.5 km/h 56 % 0.0 mm
15:57 22.1 °C 13.0 °C 1014.1 hPa West 28.5 km/h 41.7 km/h 57 % 0.0 mm
16:02 21.9 °C 14.0 °C 1013.1 hPa West 32.0 km/h 41.7 km/h 59 % 0.0 mm
16:07 22.1 °C 14.0 °C 1013.1 hPa West 23.0 km/h 39.3 km/h 61 % 0.0 mm
16:12 21.4 °C 13.0 °C 1013.1 hPa WSW 21.2 km/h 43.6 km/h 61 % 0.0 mm
16:17 21.0 °C 14.0 °C 1014.1 hPa WSW 17.7 km/h 43.6 km/h 63 % 0.0 mm
16:22 20.6 °C 14.0 °C 1014.1 hPa West 17.2 km/h 36.4 km/h 65 % 0.0 mm
16:27 20.2 °C 14.0 °C 1014.1 hPa West 23.3 km/h 29.1 km/h 67 % 0.0 mm
16:32 20.0 °C 14.0 °C 1014.1 hPa West 26.7 km/h 28.8 km/h 68 % 0.0 mm
16:37 19.9 °C 14.0 °C 1014.1 hPa West 27.0 km/h 33.1 km/h 70 % 0.0 mm
16:42 19.9 °C 15.0 °C 1014.1 hPa WSW 33.1 km/h 33.5 km/h 71 % 0.0 mm
16:47 19.7 °C 14.0 °C 1014.1 hPa West 17.7 km/h 33.5 km/h 71 % 0.0 mm
16:52 19.7 °C 15.0 °C 1014.1 hPa West 17.7 km/h 32.8 km/h 72 % 0.0 mm
16:57 19.7 °C 15.0 °C 1014.1 hPa West 14.0 km/h 28.0 km/h 72 % 0.0 mm
17:02 19.7 °C 15.0 °C 1014.1 hPa WSW 16.3 km/h 26.2 km/h 74 % 0.0 mm
17:07 19.6 °C 15.0 °C 1014.1 hPa WSW 16.3 km/h 31.7 km/h 74 % 0.0 mm
17:12 19.7 °C 15.0 °C 1014.1 hPa West 13.7 km/h 31.7 km/h 75 % 0.0 mm
17:17 19.6 °C 15.0 °C 1014.1 hPa West 14.0 km/h 25.9 km/h 75 % 0.0 mm
17:23 19.5 °C 15.0 °C 1014.1 hPa WSW 21.2 km/h 22.7 km/h 76 % 0.0 mm
17:27 19.4 °C 15.0 °C 1014.1 hPa WSW 16.6 km/h 24.8 km/h 76 % 0.0 mm
17:28 19.4 °C 15.0 °C 1014.1 hPa West 19.8 km/h 24.8 km/h 76 % 0.0 mm
17:33 19.3 °C 15.0 °C 1014.1 hPa SW 23.8 km/h 32.0 km/h 77 % 0.0 mm
17:38 19.3 °C 15.0 °C 1014.1 hPa WSW 13.0 km/h 32.0 km/h 77 % 0.0 mm
17:43 19.5 °C 16.0 °C 1014.1 hPa WSW 10.5 km/h 23.8 km/h 78 % 0.0 mm
17:48 19.3 °C 16.0 °C 1014.1 hPa WSW 16.6 km/h 29.1 km/h 79 % 0.0 mm
17:53 19.1 °C 16.0 °C 1014.1 hPa WSW 12.2 km/h 29.1 km/h 80 % 0.0 mm
17:58 19.1 °C 16.0 °C 1014.1 hPa SW 12.2 km/h 20.1 km/h 80 % 0.0 mm
18:03 19.1 °C 16.0 °C 1014.1 hPa WSW 19.8 km/h 20.9 km/h 81 % 0.0 mm
18:08 19.2 °C 16.0 °C 1014.1 hPa SW 12.2 km/h 25.9 km/h 81 % 0.0 mm
18:13 19.5 °C 16.0 °C 1014.1 hPa West 9.7 km/h 27.7 km/h 81 % 0.0 mm
18:18 19.5 °C 16.0 °C 1014.1 hPa WSW 21.2 km/h 27.7 km/h 80 % 0.0 mm
18:23 19.4 °C 16.0 °C 1014.1 hPa SW 7.9 km/h 21.2 km/h 81 % 0.0 mm
18:28 19.3 °C 16.0 °C 1014.1 hPa SW 11.9 km/h 19.8 km/h 81 % 0.0 mm
18:33 19.2 °C 16.0 °C 1014.1 hPa WSW 19.5 km/h 20.1 km/h 81 % 0.0 mm
18:38 19.1 °C 16.0 °C 1014.1 hPa WSW 13.7 km/h 27.0 km/h 81 % 0.0 mm
18:43 19.0 °C 16.0 °C 1014.1 hPa WSW 27.7 km/h 27.7 km/h 81 % 0.0 mm
18:48 19.1 °C 16.0 °C 1013.1 hPa West 14.0 km/h 27.7 km/h 81 % 0.0 mm
18:53 19.2 °C 16.0 °C 1013.1 hPa WSW 19.5 km/h 25.6 km/h 81 % 0.0 mm
18:59 19.1 °C 16.0 °C 1013.1 hPa West 16.9 km/h 25.6 km/h 80 % 0.0 mm
19:04 19.1 °C 16.0 °C 1013.1 hPa West 13.0 km/h 24.8 km/h 81 % 0.0 mm
19:09 19.1 °C 16.0 °C 1013.1 hPa WSW 12.2 km/h 28.0 km/h 81 % 0.0 mm
19:14 19.1 °C 16.0 °C 1013.1 hPa WSW 9.3 km/h 28.0 km/h 81 % 0.0 mm
19:19 19.0 °C 16.0 °C 1013.1 hPa WSW 17.2 km/h 25.9 km/h 81 % 0.0 mm
19:24 19.1 °C 16.0 °C 1013.1 hPa WSW 14.0 km/h 27.7 km/h 81 % 0.0 mm
19:29 18.9 °C 16.0 °C 1013.1 hPa West 20.9 km/h 27.7 km/h 82 % 0.0 mm
19:30 18.9 °C 16.0 °C 1013.1 hPa West 20.9 km/h 27.7 km/h 82 % 0.0 mm
19:35 18.8 °C 16.0 °C 1013.1 hPa WSW 12.2 km/h 25.6 km/h 82 % 0.0 mm
19:40 18.7 °C 16.0 °C 1013.1 hPa WSW 23.8 km/h 23.8 km/h 82 % 0.0 mm
19:45 18.6 °C 16.0 °C 1013.1 hPa WSW 17.7 km/h 27.7 km/h 83 % 0.0 mm
19:50 18.4 °C 16.0 °C 1013.1 hPa West 24.8 km/h 28.0 km/h 84 % 0.0 mm
19:55 18.2 °C 16.0 °C 1013.1 hPa WSW 19.5 km/h 28.0 km/h 86 % 0.0 mm
20:00 18.1 °C 16.0 °C 1013.1 hPa WSW 21.9 km/h 25.9 km/h 87 % 0.0 mm
20:05 18.2 °C 16.0 °C 1013.1 hPa WSW 11.9 km/h 22.4 km/h 88 % 0.0 mm
20:10 18.2 °C 16.0 °C 1013.1 hPa WSW 24.8 km/h 33.5 km/h 86 % 0.0 mm
20:15 18.2 °C 16.0 °C 1013.1 hPa WSW 21.2 km/h 33.5 km/h 86 % 0.0 mm
20:20 18.2 °C 16.0 °C 1013.1 hPa West 24.5 km/h 30.6 km/h 86 % 0.0 mm
20:25 18.3 °C 16.0 °C 1013.1 hPa WSW 20.1 km/h 32.0 km/h 86 % 0.0 mm
20:30 18.3 °C 16.0 °C 1013.1 hPa WSW 16.6 km/h 32.0 km/h 85 % 0.0 mm
20:35 18.4 °C 16.0 °C 1012.1 hPa West 17.2 km/h 30.2 km/h 85 % 0.0 mm
20:39 18.3 °C 15.0 °C 1012.1 hPa West 16.6 km/h 41.4 km/h 83 % 0.0 mm
20:45 18.3 °C 15.0 °C 1012.1 hPa West 15.4 km/h 41.4 km/h 83 % 0.0 mm
20:50 18.3 °C 15.0 °C 1013.1 hPa WSW 23.0 km/h 35.6 km/h 83 % 0.0 mm
20:55 18.3 °C 15.0 °C 1013.1 hPa West 17.7 km/h 28.5 km/h 82 % 0.0 mm
21:00 18.3 °C 15.0 °C 1013.1 hPa West 17.2 km/h 28.5 km/h 82 % 0.0 mm
21:05 18.3 °C 15.0 °C 1012.1 hPa West 22.7 km/h 28.5 km/h 82 % 0.0 mm
21:10 18.3 °C 15.0 °C 1012.1 hPa West 21.2 km/h 28.5 km/h 81 % 0.0 mm
21:15 18.3 °C 15.0 °C 1012.1 hPa WSW 14.0 km/h 28.5 km/h 81 % 0.0 mm
21:20 18.3 °C 15.0 °C 1012.1 hPa WSW 27.7 km/h 28.8 km/h 81 % 0.0 mm
21:25 18.3 °C 15.0 °C 1012.1 hPa WSW 10.8 km/h 28.8 km/h 81 % 0.0 mm
21:30 18.2 °C 15.0 °C 1012.1 hPa West 20.1 km/h 31.7 km/h 82 % 0.0 mm
21:35 18.2 °C 15.0 °C 1013.1 hPa West 14.0 km/h 31.7 km/h 82 % 0.0 mm
21:40 18.2 °C 15.0 °C 1013.1 hPa West 19.8 km/h 27.4 km/h 82 % 0.0 mm
21:45 18.1 °C 15.0 °C 1013.1 hPa WSW 16.6 km/h 27.4 km/h 81 % 0.0 mm
21:50 18.1 °C 15.0 °C 1013.1 hPa SW 16.3 km/h 30.2 km/h 81 % 0.0 mm
21:55 18.0 °C 15.0 °C 1013.1 hPa West 20.1 km/h 31.7 km/h 81 % 0.0 mm
22:00 18.0 °C 15.0 °C 1013.1 hPa West 16.3 km/h 31.7 km/h 81 % 0.0 mm
22:05 17.8 °C 15.0 °C 1013.1 hPa West 12.6 km/h 20.9 km/h 82 % 0.0 mm
22:10 17.7 °C 15.0 °C 1013.1 hPa WSW 12.6 km/h 23.3 km/h 82 % 0.0 mm
22:16 17.6 °C 15.0 °C 1013.1 hPa West 13.7 km/h 23.3 km/h 83 % 0.0 mm
22:21 17.6 °C 15.0 °C 1013.1 hPa WSW 23.8 km/h 25.9 km/h 83 % 0.0 mm
22:26 17.6 °C 15.0 °C 1013.1 hPa WSW 19.5 km/h 25.9 km/h 84 % 0.0 mm
22:31 17.6 °C 15.0 °C 1013.1 hPa West 13.0 km/h 23.8 km/h 84 % 0.0 mm
22:36 17.6 °C 15.0 °C 1013.1 hPa WSW 21.2 km/h 23.8 km/h 84 % 0.0 mm
22:41 17.6 °C 15.0 °C 1013.1 hPa West 21.9 km/h 27.4 km/h 83 % 0.0 mm
22:46 17.6 °C 15.0 °C 1013.1 hPa SW 20.6 km/h 28.5 km/h 83 % 0.0 mm
22:51 17.6 °C 15.0 °C 1013.1 hPa WSW 23.8 km/h 28.5 km/h 83 % 0.0 mm
22:56 17.5 °C 15.0 °C 1013.1 hPa WSW 9.7 km/h 25.6 km/h 83 % 0.0 mm
22:57 17.4 °C 14.0 °C 1013.1 hPa WSW 19.1 km/h 25.6 km/h 83 % 0.0 mm
23:03 17.3 °C 14.0 °C 1013.1 hPa WSW 14.8 km/h 25.6 km/h 83 % 0.0 mm
23:08 17.1 °C 14.0 °C 1013.1 hPa WSW 16.9 km/h 25.6 km/h 83 % 0.0 mm
23:13 17.0 °C 14.0 °C 1013.1 hPa West 16.9 km/h 23.0 km/h 83 % 0.0 mm
23:18 16.8 °C 14.0 °C 1013.1 hPa West 16.6 km/h 24.5 km/h 84 % 0.0 mm
23:23 16.7 °C 14.0 °C 1013.1 hPa West 12.6 km/h 24.5 km/h 85 % 0.0 mm
23:28 16.6 °C 14.0 °C 1013.1 hPa WSW 10.5 km/h 20.1 km/h 85 % 0.0 mm
23:33 16.6 °C 14.0 °C 1013.1 hPa WSW 10.5 km/h 20.1 km/h 86 % 0.0 mm
23:38 16.4 °C 14.0 °C 1013.1 hPa West 14.0 km/h 21.6 km/h 87 % 0.0 mm
23:43 16.4 °C 14.0 °C 1013.1 hPa WSW 17.2 km/h 21.6 km/h 87 % 0.0 mm
23:48 16.3 °C 14.0 °C 1013.1 hPa SW 12.6 km/h 21.6 km/h 88 % 0.0 mm
23:53 16.3 °C 14.0 °C 1013.1 hPa West 12.2 km/h 19.5 km/h 88 % 0.0 mm
23:58 16.2 °C 15.0 °C 1013.1 hPa WSW 13.0 km/h 21.2 km/h 89 % 0.0 mm
Le Gheer Warneton
Courtoisie de Weather Underground - 2.25 mb

Mise a jour : 17-12-17 08:56:12
Généré par Cumulus 1.9.4 (1099)